QPF
0.01 0.01 0.02 0.03 0.04 0.04 0.04 0.05 0.04 0.02 0.03 0.04 0.06 0.05 0.04 0.03 0.03 0.03 0.03 0.03 0.04 0.05 0.03 0.02 0.01 0.01 0.00 0.00 0.00 0.00 0.00 0.00 0.00 0.00 0.00 0.00 0.00 0.00 0.00 0.00 0.00 0.00 0.00 0.00
0.00 0.01 0.01 0.02 0.03 0.04 0.04 0.06 0.06 0.04 0.03 0.04 0.05 0.05 0.04 0.02 0.02 0.02 0.02 0.02 0.02 0.04 0.04 0.03 0.01 0.00 0.00 0.00 0.00 0.00 0.00 0.00 0.00 0.00 0.00 0.00 0.00 0.00 0.00 0.00 0.00 0.00 0.00 0.00
0.00 0.01 0.01 0.01 0.02 0.04 0.05 0.05 0.05 0.05 0.04 0.04 0.05 0.05 0.04 0.03 0.03 0.02 0.02 0.02 0.02 0.03 0.04 0.03 0.02 0.01 0.00 0.00 0.00 0.00 0.00 0.00 0.00 0.00 0.00 0.00 0.00 0.00 0.00 0.00 0.00 0.00 0.00 0.00
0.00 0.00 0.01 0.01 0.02 0.03 0.05 0.04 0.03 0.04 0.04 0.03 0.03 0.05 0.04 0.03 0.03 0.02 0.01 0.01 0.01 0.02 0.03 0.03 0.02 0.01 0.01 0.00 0.00 0.00 0.00 0.00 0.00 0.00 0.00 0.00 0.00 0.00 0.00 0.00 0.00 0.00 0.00 0.00
0.00 0.01 0.01 0.01 0.01 0.02 0.03 0.03 0.03 0.04 0.04 0.03 0.02 0.02 0.03 0.03 0.02 0.01 0.01 0.01 0.01 0.01 0.02 0.02 0.02 0.02 0.01 0.00 0.00 0.00 0.00 0.00 0.00 0.00 0.00 0.00 0.00 0.00 0.00 0.00 0.00 0.00 0.00 0.00
0.00 0.00 0.01 0.01 0.01 0.01 0.02 0.03 0.04 0.05 0.04 0.03 0.01 0.02 0.02 0.02 0.01 0.01 0.01 0.01 0.00 0.01 0.01 0.01 0.02 0.02 0.01 0.00 0.00 0.00 0.00 0.00 0.00 0.00 0.00 0.00 0.00 0.00 0.00 0.00 0.00 0.00 0.00 0.00
0.00 0.00 0.00 0.01 0.01 0.02 0.02 0.03 0.05 0.06 0.05 0.03 0.01 0.01 0.01 0.00 0.00 0.00 0.00 0.01 0.00 0.00 0.01 0.01 0.01 0.01 0.01 0.00 0.00 0.00 0.00 0.00 0.00 0.00 0.00 0.00 0.00 0.00 0.00 0.00 0.00 0.00 0.00 0.00
0.01 0.01 0.01 0.00 0.01 0.01 0.02 0.02 0.03 0.04 0.03 0.03 0.01 0.01 0.00 0.00 0.00 0.00 0.00 0.01 0.00 0.00 0.00 0.01 0.01 0.01 0.01 0.01 0.00 0.00 0.00 0.00 0.00 0.00 0.00 0.00 0.00 0.00 0.00 0.00 0.00 0.00 0.00 0.00
0.01 0.01 0.00 0.01 0.01 0.01 0.01 0.01 0.01 0.02 0.02 0.03 0.02 0.01 0.00 0.00 0.00 0.00 0.00 0.00 0.00 0.00 0.00 0.01 0.01 0.01 0.01 0.01 0.00 0.00 0.00 0.00 0.00 0.00 0.00 0.00 0.00 0.00 0.00 0.00 0.00 0.00 0.00 0.00
0.01 0.01 0.01 0.01 0.01 0.01 0.02 0.02 0.02 0.02 0.03 0.02 0.01 0.00 0.00 0.00 0.00 0.00 0.00 0.00 0.00 0.00 0.00 0.01 0.01 0.01 0.01 0.01 0.01 0.00 0.00 0.00 0.00 0.00 0.00 0.00 0.00 0.00 0.00 0.00 0.00 0.00 0.00 0.00
0.00 0.01 0.01 0.01 0.01 0.01 0.02 0.02 0.02 0.02 0.02 0.02 0.02 0.01 0.00 0.00 0.00 0.00 0.00 0.01 0.01 0.00 0.00 0.00 0.01 0.01 0.01 0.01 0.01 0.00 0.00 0.00 0.00 0.00 0.00 0.00 0.00 0.00 0.00 0.00 0.00 0.00 0.00 0.00
0.00 0.01 0.01 0.01 0.01 0.01 0.01 0.01 0.01 0.02 0.02 0.01 0.01 0.01 0.00 0.00 0.00 0.00 0.00 0.01 0.01 0.01 0.01 0.01 0.01 0.02 0.01 0.01 0.01 0.00 0.00 0.00 0.00 0.00 0.00 0.00 0.00 0.00 0.00 0.00 0.00 0.00 0.00 0.00
0.00 0.01 0.02 0.02 0.02 0.01 0.01 0.01 0.01 0.02 0.02 0.01 0.01 0.01 0.00 0.00 0.00 0.00 0.00 0.00 0.00 0.00 0.01 0.01 0.01 0.02 0.01 0.01 0.01 0.00 0.00 0.00 0.00 0.00 0.00 0.00 0.00 0.00 0.00 0.00 0.00 0.00 0.00 0.00
0.01 0.01 0.01 0.01 0.02 0.01 0.01 0.00 0.01 0.01 0.01 0.01 0.00 0.00 0.00 0.01 0.00 0.00 0.00 0.00 0.00 0.00 0.00 0.01 0.01 0.02 0.02 0.01 0.01 0.00 0.01 0.00 0.00 0.00 0.00 0.00 0.00 0.00 0.00 0.00 0.00 0.00 0.00 0.00
0.01 0.01 0.00 0.00 0.00 0.01 0.00 0.00 0.00 0.00 0.00 0.00 0.00 0.00 0.00 0.00 0.00 0.00 0.01 0.01 0.00 0.01 0.01 0.01 0.01 0.01 0.01 0.01 0.01 0.00 0.00 0.00 0.01 0.00 0.00 0.00 0.00 0.00 0.00 0.00 0.00 0.00 0.00 0.00
0.02 0.01 0.00 0.00 0.00 0.01 0.00 0.00 0.00 0.00 0.00 0.00 0.00 0.00 0.00 0.00 0.00 0.00 0.01 0.01 0.01 0.02 0.01 0.01 0.01 0.00 0.01 0.01 0.01 0.00 0.00 0.00 0.00 0.00 0.00 0.00 0.00 0.00 0.00 0.00 0.00 0.00 0.00 0.00
0.02 0.02 0.01 0.01 0.01 0.01 0.01 0.00 0.00 0.00 0.00 0.00 0.00 0.00 0.00 0.00 0.00 0.00 0.00 0.01 0.01 0.02 0.02 0.02 0.01 0.01 0.01 0.01 0.01 0.00 0.00 0.00 0.00 0.00 0.00 0.00 0.00 0.00 0.00 0.00 0.00 0.00 0.00 0.00
0.02 0.02 0.02 0.01 0.01 0.01 0.01 0.00 0.00 0.00 0.00 0.00 0.00 0.00 0.00 0.00 0.00 0.00 0.01 0.00 0.01 0.01 0.01 0.02 0.02 0.01 0.01 0.01 0.00 0.00 0.00 0.00 0.00 0.00 0.00 0.00 0.00 0.00 0.00 0.00 0.00 0.00 0.00 0.00
0.01 0.01 0.02 0.01 0.01 0.00 0.01 0.01 0.00 0.00 0.00 0.00 0.00 0.00 0.00 0.00 0.00 0.00 0.00 0.00 0.00 0.00 0.00 0.01 0.01 0.01 0.01 0.01 0.00 0.00 0.00 0.00 0.00 0.00 0.01 0.00 0.00 0.00 0.00 0.00 0.00 0.00 0.00 0.00
0.01 0.01 0.02 0.01 0.01 0.00 0.01 0.01 0.00 0.00 0.00 0.00 0.00 0.00 0.00 0.00 0.00 0.00 0.00 0.00 0.00 0.00 0.00 0.01 0.01 0.00 0.00 0.00 0.00 0.00 0.00 0.00 0.00 0.00 0.01 0.01 0.00 0.00 0.00 0.00 0.01 0.01 0.01 0.00
0.01 0.01 0.01 0.01 0.01 0.01 0.01 0.00 0.00 0.00 0.00 0.00 0.00 0.00 0.00 0.00 0.00 0.00 0.00 0.00 0.00 0.00 0.00 0.01 0.01 0.01 0.01 0.00 0.00 0.00 0.00 0.00 0.00 0.00 0.01 0.01 0.01 0.00 0.00 0.01 0.01 0.01 0.01 0.01
0.00 0.00 0.00 0.01 0.01 0.01 0.00 0.00 0.00 0.00 0.00 0.00 0.00 0.00 0.00 0.00 0.00 0.00 0.00 0.00 0.00 0.01 0.00 0.01 0.01 0.01 0.01 0.01 0.01 0.01 0.01 0.01 0.01 0.00 0.01 0.01 0.01 0.01 0.01 0.01 0.01 0.01 0.01 0.01
0.01 0.00 0.00 0.00 0.00 0.00 0.00 0.00 0.00 0.00 0.00 0.00 0.00 0.00 0.00 0.00 0.00 0.00 0.00 0.00 0.00 0.00 0.00 0.00 0.00 0.00 0.00 0.00 0.01 0.01 0.01 0.02 0.01 0.00 0.00 0.01 0.01 0.01 0.01 0.01 0.01 0.01 0.01 0.01
0.01 0.00 0.00 0.00 0.00 0.00 0.00 0.00 0.00 0.00 0.00 0.00 0.00 0.00 0.00 0.00 0.00 0.00 0.00 0.00 0.00 0.00 0.00 0.00 0.00 0.00 0.00 0.00 0.01 0.01 0.02 0.01 0.01 0.01 0.00 0.00 0.00 0.01 0.01 0.01 0.01 0.00 0.01 0.01
0.01 0.00 0.00 0.00 0.00 0.00 0.00 0.00 0.00 0.00 0.00 0.00 0.00 0.00 0.00 0.00 0.00 0.00 0.00 0.00 0.00 0.00 0.00 0.00 0.00 0.00 0.00 0.00 0.00 0.01 0.01 0.01 0.01 0.01 0.01 0.00 0.00 0.00 0.00 0.00 0.00 0.00 0.00 0.01
0.00 0.00 0.00 0.00 0.00 0.00 0.00 0.00 0.00 0.00 0.00 0.00 0.00 0.00 0.00 0.00 0.00 0.00 0.00 0.00 0.00 0.00 0.00 0.01 0.01 0.00 0.00 0.00 0.00 0.00 0.00 0.01 0.01 0.01 0.01 0.01 0.00 0.00 0.00 0.00 0.00 0.00 0.00 0.00
MSLP
1015.32 1015.70 1016.05 1016.35 1016.58 1016.73 1016.78 1016.74 1016.62 1016.42 1016.17 1015.90 1015.66 1015.46 1015.35 1015.33 1015.39 1015.53 1015.70 1015.88 1016.02 1016.11 1016.13 1016.10 1016.04 1015.99 1015.98 1016.05 1016.21 1016.46 1016.79 1017.17 1017.55 1017.92 1018.22 1018.46 1018.62 1018.70 1018.71 1018.67 1018.57 1018.44 1018.27 1018.06
1015.75 1016.07 1016.35 1016.58 1016.76 1016.88 1016.93 1016.91 1016.81 1016.65 1016.43 1016.17 1015.91 1015.68 1015.49 1015.39 1015.38 1015.44 1015.57 1015.72 1015.86 1015.97 1016.03 1016.04 1016.02 1015.99 1015.99 1016.06 1016.21 1016.45 1016.79 1017.18 1017.60 1018.00 1018.36 1018.65 1018.86 1018.97 1019.01 1018.98 1018.88 1018.74 1018.57 1018.36
1016.06 1016.31 1016.52 1016.69 1016.82 1016.91 1016.97 1016.97 1016.91 1016.78 1016.59 1016.35 1016.07 1015.79 1015.54 1015.36 1015.26 1015.26 1015.33 1015.45 1015.60 1015.74 1015.85 1015.90 1015.93 1015.93 1015.95 1016.02 1016.17 1016.40 1016.73 1017.13 1017.57 1018.01 1018.42 1018.76 1019.02 1019.18 1019.25 1019.24 1019.17 1019.04 1018.88 1018.69
1016.23 1016.42 1016.56 1016.67 1016.77 1016.85 1016.91 1016.94 1016.92 1016.83 1016.67 1016.42 1016.12 1015.78 1015.46 1015.19 1015.00 1014.92 1014.93 1015.04 1015.20 1015.38 1015.54 1015.66 1015.75 1015.80 1015.86 1015.94 1016.08 1016.31 1016.63 1017.03 1017.48 1017.95 1018.40 1018.79 1019.10 1019.32 1019.44 1019.47 1019.43 1019.33 1019.20 1019.04
1016.29 1016.41 1016.50 1016.57 1016.64 1016.73 1016.81 1016.87 1016.89 1016.83 1016.67 1016.41 1016.07 1015.66 1015.25 1014.88 1014.59 1014.43 1014.40 1014.49 1014.66 1014.89 1015.12 1015.33 1015.49 1015.61 1015.71 1015.82 1015.97 1016.19 1016.50 1016.90 1017.36 1017.85 1018.33 1018.77 1019.14 1019.41 1019.58 1019.66 1019.67 1019.61 1019.51 1019.39
1016.26 1016.33 1016.38 1016.44 1016.52 1016.61 1016.73 1016.82 1016.87 1016.82 1016.66 1016.36 1015.95 1015.47 1014.95 1014.47 1014.09 1013.85 1013.77 1013.85 1014.05 1014.33 1014.64 1014.94 1015.19 1015.39 1015.55 1015.69 1015.86 1016.09 1016.39 1016.78 1017.24 1017.74 1018.25 1018.73 1019.15 1019.47 1019.70 1019.83 1019.87 1019.86 1019.80 1019.72
1016.21 1016.25 1016.29 1016.35 1016.44 1016.57 1016.71 1016.84 1016.90 1016.85 1016.66 1016.31 1015.83 1015.25 1014.63 1014.05 1013.58 1013.27 1013.15 1013.22 1013.44 1013.78 1014.17 1014.56 1014.90 1015.18 1015.41 1015.60 1015.79 1016.02 1016.32 1016.70 1017.15 1017.66 1018.18 1018.69 1019.14 1019.51 1019.78 1019.95 1020.04 1020.07 1020.05 1020.00
1016.17 1016.21 1016.26 1016.35 1016.47 1016.64 1016.81 1016.95 1017.01 1016.94 1016.71 1016.30 1015.74 1015.07 1014.36 1013.69 1013.14 1012.77 1012.62 1012.68 1012.93 1013.32 1013.78 1014.25 1014.68 1015.03 1015.32 1015.56 1015.77 1016.01 1016.30 1016.67 1017.11 1017.61 1018.14 1018.66 1019.13 1019.53 1019.83 1020.04 1020.16 1020.22 1020.24 1020.23
1016.18 1016.23 1016.32 1016.45 1016.62 1016.81 1017.01 1017.15 1017.19 1017.09 1016.80 1016.33 1015.70 1014.95 1014.17 1013.43 1012.83 1012.42 1012.25 1012.31 1012.58 1013.00 1013.52 1014.05 1014.54 1014.95 1015.29 1015.57 1015.81 1016.05 1016.34 1016.69 1017.12 1017.60 1018.12 1018.64 1019.11 1019.52 1019.84 1020.07 1020.22 1020.31 1020.36 1020.38
1016.21 1016.32 1016.46 1016.64 1016.85 1017.08 1017.27 1017.40 1017.41 1017.25 1016.91 1016.38 1015.69 1014.89 1014.06 1013.29 1012.66 1012.23 1012.05 1012.11 1012.39 1012.84 1013.37 1013.94 1014.46 1014.92 1015.30 1015.60 1015.86 1016.12 1016.40 1016.75 1017.16 1017.62 1018.12 1018.62 1019.08 1019.49 1019.82 1020.06 1020.23 1020.34 1020.41 1020.46
1016.24 1016.43 1016.64 1016.88 1017.13 1017.36 1017.55 1017.64 1017.59 1017.38 1016.98 1016.39 1015.66 1014.83 1013.99 1013.22 1012.59 1012.17 1011.99 1012.05 1012.33 1012.77 1013.30 1013.87 1014.41 1014.89 1015.28 1015.61 1015.89 1016.16 1016.45 1016.79 1017.19 1017.63 1018.11 1018.58 1019.03 1019.43 1019.75 1020.00 1020.18 1020.31 1020.41 1020.49
1016.24 1016.51 1016.79 1017.09 1017.37 1017.60 1017.75 1017.79 1017.68 1017.39 1016.93 1016.30 1015.54 1014.71 1013.89 1013.14 1012.54 1012.15 1011.98 1012.04 1012.30 1012.72 1013.23 1013.78 1014.30 1014.78 1015.19 1015.53 1015.84 1016.13 1016.44 1016.79 1017.18 1017.61 1018.07 1018.52 1018.95 1019.33 1019.65 1019.91 1020.11 1020.26 1020.39 1020.50
1016.17 1016.52 1016.88 1017.22 1017.51 1017.72 1017.83 1017.80 1017.60 1017.24 1016.72 1016.05 1015.28 1014.48 1013.69 1012.99 1012.44 1012.08 1011.93 1011.98 1012.22 1012.60 1013.07 1013.58 1014.08 1014.54 1014.96 1015.33 1015.67 1016.00 1016.34 1016.71 1017.11 1017.54 1017.99 1018.43 1018.84 1019.21 1019.53 1019.79 1020.01 1020.20 1020.37 1020.52
1016.01 1016.44 1016.86 1017.23 1017.52 1017.70 1017.74 1017.62 1017.34 1016.90 1016.31 1015.62 1014.85 1014.08 1013.34 1012.71 1012.22 1011.90 1011.77 1011.82 1012.03 1012.37 1012.79 1013.25 1013.71 1014.16 1014.59 1014.99 1015.37 1015.75 1016.14 1016.55 1016.98 1017.42 1017.87 1018.30 1018.70 1019.06 1019.39 1019.67 1019.92 1020.14 1020.35 1020.55
1015.78 1016.27 1016.72 1017.10 1017.37 1017.50 1017.46 1017.26 1016.89 1016.36 1015.73 1015.01 1014.25 1013.52 1012.84 1012.28 1011.85 1011.59 1011.48 1011.53 1011.71 1012.00 1012.37 1012.78 1013.21 1013.65 1014.09 1014.52 1014.96 1015.40 1015.85 1016.31 1016.78 1017.24 1017.70 1018.13 1018.53 1018.90 1019.23 1019.54 1019.82 1020.09 1020.34 1020.59
1015.50 1016.01 1016.47 1016.84 1017.07 1017.14 1017.02 1016.73 1016.27 1015.68 1014.99 1014.26 1013.53 1012.84 1012.23 1011.74 1011.38 1011.16 1011.09 1011.14 1011.29 1011.54 1011.86 1012.23 1012.63 1013.06 1013.51 1013.98 1014.47 1014.97 1015.49 1016.00 1016.51 1017.01 1017.48 1017.92 1018.33 1018.71 1019.06 1019.38 1019.70 1020.01 1020.31 1020.60
1015.19 1015.69 1016.13 1016.46 1016.63 1016.63 1016.43 1016.05 1015.52 1014.88 1014.17 1013.43 1012.73 1012.10 1011.56 1011.15 1010.86 1010.70 1010.65 1010.71 1010.85 1011.07 1011.34 1011.67 1012.05 1012.47 1012.93 1013.43 1013.96 1014.52 1015.09 1015.65 1016.20 1016.73 1017.22 1017.67 1018.08 1018.47 1018.83 1019.18 1019.53 1019.88 1020.23 1020.56
1014.88 1015.33 1015.70 1015.96 1016.06 1015.98 1015.72 1015.27 1014.69 1014.02 1013.30 1012.59 1011.94 1011.38 1010.92 1010.59 1010.38 1010.28 1010.27 1010.34 1010.47 1010.66 1010.90 1011.20 1011.54 1011.94 1012.40 1012.92 1013.47 1014.06 1014.67 1015.26 1015.84 1016.38 1016.88 1017.34 1017.76 1018.16 1018.54 1018.91 1019.29 1019.67 1020.05 1020.41
1014.58 1014.92 1015.20 1015.37 1015.39 1015.23 1014.90 1014.41 1013.81 1013.14 1012.45 1011.79 1011.21 1010.73 1010.37 1010.13 1010.00 1009.97 1010.00 1010.09 1010.23 1010.40 1010.61 1010.86 1011.17 1011.54 1011.98 1012.48 1013.04 1013.63 1014.24 1014.84 1015.43 1015.97 1016.47 1016.93 1017.36 1017.76 1018.14 1018.54 1018.93 1019.34 1019.74 1020.14
1014.27 1014.48 1014.64 1014.69 1014.61 1014.38 1014.00 1013.50 1012.91 1012.27 1011.64 1011.07 1010.58 1010.21 1009.95 1009.82 1009.77 1009.81 1009.89 1010.01 1010.15 1010.30 1010.48 1010.70 1010.96 1011.28 1011.68 1012.14 1012.66 1013.22 1013.81 1014.39 1014.96 1015.49 1015.98 1016.43 1016.86 1017.26 1017.66 1018.06 1018.47 1018.90 1019.32 1019.73
1013.95 1014.00 1014.01 1013.93 1013.75 1013.46 1013.05 1012.56 1012.00 1011.44 1010.90 1010.43 1010.06 1009.81 1009.67 1009.64 1009.69 1009.80 1009.94 1010.08 1010.22 1010.37 1010.51 1010.68 1010.88 1011.15 1011.47 1011.87 1012.33 1012.83 1013.37 1013.91 1014.44 1014.95 1015.42 1015.86 1016.28 1016.68 1017.08 1017.49 1017.92 1018.35 1018.79 1019.22
1013.61 1013.48 1013.33 1013.12 1012.85 1012.50 1012.08 1011.62 1011.13 1010.66 1010.24 1009.90 1009.66 1009.54 1009.52 1009.59 1009.73 1009.91 1010.09 1010.26 1010.41 1010.54 1010.65 1010.77 1010.91 1011.10 1011.35 1011.66 1012.04 1012.47 1012.94 1013.42 1013.90 1014.37 1014.82 1015.24 1015.65 1016.05 1016.46 1016.88 1017.31 1017.75 1018.20 1018.65
1013.25 1012.94 1012.63 1012.30 1011.94 1011.56 1011.15 1010.74 1010.33 1009.97 1009.68 1009.47 1009.37 1009.37 1009.46 1009.63 1009.85 1010.08 1010.31 1010.50 1010.65 1010.76 1010.84 1010.91 1010.99 1011.10 1011.27 1011.50 1011.79 1012.13 1012.53 1012.95 1013.38 1013.80 1014.22 1014.63 1015.03 1015.43 1015.84 1016.26 1016.70 1017.15 1017.61 1018.06
1012.86 1012.39 1011.94 1011.51 1011.09 1010.70 1010.32 1009.97 1009.66 1009.42 1009.25 1009.17 1009.18 1009.29 1009.48 1009.72 1010.00 1010.27 1010.52 1010.73 1010.88 1010.98 1011.03 1011.06 1011.09 1011.14 1011.23 1011.38 1011.59 1011.86 1012.17 1012.53 1012.91 1013.30 1013.69 1014.08 1014.47 1014.86 1015.27 1015.69 1016.13 1016.58 1017.04 1017.51
1012.46 1011.87 1011.32 1010.82 1010.37 1009.98 1009.65 1009.37 1009.16 1009.03 1008.97 1008.99 1009.10 1009.29 1009.54 1009.83 1010.14 1010.44 1010.70 1010.91 1011.06 1011.15 1011.19 1011.19 1011.19 1011.19 1011.23 1011.32 1011.46 1011.66 1011.91 1012.21 1012.54 1012.89 1013.25 1013.62 1014.00 1014.38 1014.78 1015.20 1015.63 1016.08 1016.54 1017.02
1012.05 1011.38 1010.78 1010.26 1009.82 1009.46 1009.19 1008.99 1008.87 1008.83 1008.85 1008.95 1009.12 1009.36 1009.63 1009.94 1010.26 1010.56 1010.83 1011.04 1011.19 1011.28 1011.31 1011.31 1011.29 1011.27 1011.28 1011.32 1011.42 1011.57 1011.77 1012.02 1012.30 1012.62 1012.95 1013.29 1013.64 1014.01 1014.39 1014.79 1015.21 1015.65 1016.11 1016.58
Thickness
5718 5713 5707 5710 5712 5711 5708 5705 5703 5706 5715 5711 5709 5711 5715 5718 5718 5719 5721 5722 5724 5726 5731 5733 5733 5734 5734 5733 5733 5732 5731 5730 5728 5727 5727 5725 5724 5723 5722 5720 5718 5718 5718 5717
5709 5704 5709 5710 5709 5705 5704 5699 5699 5702 5710 5709 5707 5709 5716 5717 5717 5720 5721 5722 5725 5726 5727 5728 5730 5732 5733 5732 5732 5731 5731 5729 5729 5727 5728 5725 5723 5722 5720 5718 5717 5717 5717 5716
5703 5705 5708 5703 5700 5697 5698 5697 5697 5696 5700 5705 5701 5701 5708 5714 5717 5719 5721 5724 5727 5727 5727 5727 5729 5730 5731 5731 5731 5731 5730 5728 5728 5726 5725 5723 5722 5721 5720 5718 5716 5715 5715 5714
5702 5705 5701 5698 5696 5696 5691 5698 5697 5694 5692 5691 5695 5688 5706 5713 5711 5714 5718 5721 5725 5728 5729 5730 5729 5729 5729 5731 5732 5732 5730 5729 5727 5726 5724 5723 5720 5719 5718 5718 5716 5715 5714 5713
5698 5700 5697 5694 5696 5696 5694 5697 5695 5693 5690 5688 5693 5690 5705 5711 5706 5714 5720 5724 5727 5729 5730 5730 5730 5730 5731 5731 5730 5730 5730 5727 5725 5725 5723 5722 5721 5720 5719 5718 5716 5716 5714 5712
5700 5703 5701 5699 5698 5698 5695 5691 5689 5689 5686 5678 5692 5690 5698 5711 5714 5720 5724 5727 5729 5731 5731 5731 5731 5730 5729 5729 5728 5727 5726 5724 5724 5723 5723 5722 5720 5719 5717 5716 5715 5715 5714 5713
5691 5696 5699 5700 5691 5691 5691 5683 5672 5671 5671 5680 5695 5690 5702 5721 5726 5727 5728 5731 5732 5733 5732 5730 5729 5728 5727 5726 5726 5726 5725 5723 5722 5722 5723 5722 5722 5721 5719 5718 5716 5715 5715 5713
5684 5683 5694 5696 5694 5690 5689 5687 5674 5666 5670 5682 5688 5691 5711 5724 5728 5732 5734 5736 5735 5734 5733 5731 5731 5729 5727 5727 5726 5726 5725 5724 5723 5722 5723 5723 5722 5721 5720 5718 5717 5716 5715 5713
5687 5685 5695 5696 5698 5695 5686 5686 5691 5682 5680 5677 5690 5701 5715 5724 5724 5727 5730 5733 5734 5734 5733 5732 5731 5730 5729 5728 5726 5726 5726 5725 5723 5723 5722 5722 5722 5720 5719 5718 5717 5716 5715 5713
5696 5684 5689 5691 5692 5690 5692 5690 5681 5675 5668 5670 5685 5695 5703 5712 5717 5722 5725 5729 5733 5734 5734 5733 5731 5730 5730 5730 5728 5727 5727 5726 5724 5723 5722 5721 5721 5719 5718 5718 5716 5716 5714 5712
5697 5686 5683 5684 5683 5683 5681 5681 5682 5680 5679 5673 5675 5693 5716 5716 5720 5723 5727 5731 5733 5734 5734 5733 5732 5731 5730 5729 5727 5726 5726 5726 5724 5723 5722 5720 5719 5718 5717 5716 5714 5714 5713 5713
5695 5689 5681 5685 5691 5693 5690 5688 5685 5673 5675 5680 5680 5693 5721 5721 5723 5725 5728 5731 5734 5735 5735 5733 5732 5731 5729 5728 5727 5726 5726 5725 5723 5722 5721 5720 5718 5717 5717 5715 5714 5714 5713 5713
5692 5685 5674 5673 5677 5683 5684 5687 5687 5686 5682 5679 5677 5692 5720 5722 5722 5725 5727 5731 5734 5734 5734 5732 5730 5728 5728 5727 5727 5726 5726 5724 5723 5721 5721 5720 5718 5717 5717 5715 5714 5713 5712 5711
5695 5688 5682 5675 5681 5687 5683 5684 5685 5683 5678 5682 5688 5697 5713 5717 5719 5723 5727 5730 5734 5734 5733 5731 5729 5728 5728 5728 5728 5727 5726 5724 5722 5720 5720 5719 5718 5717 5716 5715 5713 5712 5711 5710
5691 5686 5689 5690 5691 5690 5688 5686 5685 5684 5688 5688 5696 5700 5710 5717 5720 5724 5727 5730 5730 5731 5731 5731 5729 5729 5728 5727 5727 5728 5726 5723 5721 5719 5718 5718 5718 5716 5714 5712 5711 5710 5709 5708
5689 5686 5688 5685 5689 5689 5686 5690 5690 5689 5692 5694 5697 5702 5719 5722 5725 5725 5727 5727 5727 5729 5730 5731 5731 5731 5729 5727 5727 5727 5725 5723 5721 5719 5718 5717 5716 5714 5712 5711 5709 5708 5707 5706
5685 5684 5681 5682 5687 5684 5681 5695 5695 5695 5699 5699 5698 5709 5718 5718 5719 5722 5724 5725 5727 5730 5731 5731 5732 5733 5732 5730 5729 5727 5726 5724 5721 5719 5718 5715 5714 5712 5711 5709 5707 5705 5704 5703
5683 5681 5681 5680 5679 5667 5694 5709 5706 5700 5702 5707 5709 5714 5717 5718 5720 5723 5725 5725 5728 5730 5731 5732 5733 5733 5733 5733 5730 5729 5726 5722 5720 5719 5716 5714 5712 5709 5708 5706 5704 5703 5702 5700
5685 5680 5676 5676 5673 5682 5697 5704 5702 5699 5702 5713 5712 5714 5717 5720 5721 5722 5726 5728 5729 5732 5733 5733 5734 5733 5733 5732 5730 5727 5723 5721 5719 5718 5716 5714 5712 5709 5707 5705 5704 5703 5700 5699
5676 5679 5676 5673 5669 5672 5694 5706 5709 5703 5698 5717 5718 5717 5718 5717 5713 5718 5725 5727 5728 5730 5731 5732 5732 5731 5729 5729 5727 5724 5721 5720 5719 5718 5716 5714 5712 5709 5707 5705 5704 5701 5698 5696
5666 5668 5669 5671 5673 5686 5704 5705 5703 5691 5701 5717 5720 5721 5720 5719 5721 5724 5725 5724 5725 5726 5728 5729 5728 5726 5725 5726 5724 5721 5721 5719 5720 5718 5715 5712 5710 5708 5706 5704 5701 5698 5695 5693
5674 5671 5670 5673 5670 5681 5702 5700 5700 5707 5717 5718 5720 5721 5720 5720 5721 5721 5720 5721 5722 5722 5723 5724 5724 5722 5722 5722 5720 5719 5718 5719 5717 5714 5711 5709 5707 5706 5703 5700 5697 5695 5692 5689
5677 5683 5685 5686 5689 5700 5703 5705 5708 5712 5713 5717 5718 5719 5719 5717 5716 5717 5717 5717 5718 5719 5720 5720 5720 5718 5717 5717 5717 5716 5715 5715 5713 5710 5707 5705 5704 5702 5700 5697 5694 5691 5689 5688
5675 5679 5682 5684 5691 5696 5698 5702 5705 5708 5710 5713 5716 5717 5716 5715 5714 5714 5714 5714 5714 5715 5715 5716 5715 5714 5713 5713 5713 5713 5712 5711 5709 5706 5704 5702 5700 5698 5696 5694 5693 5690 5688 5686
5671 5673 5678 5681 5688 5691 5694 5697 5701 5704 5708 5709 5711 5712 5712 5711 5710 5710 5709 5709 5709 5710 5710 5711 5710 5709 5709 5709 5708 5708 5708 5706 5704 5702 5701 5699 5697 5695 5693 5691 5690 5689 5688 5687
5670 5673 5676 5681 5691 5692 5694 5698 5699 5699 5701 5703 5704 5704 5706 5706 5705 5705 5704 5704 5705 5705 5705 5705 5705 5704 5704 5704 5703 5702 5702 5702 5700 5698 5696 5694 5692 5690 5688 5686 5683 5679 5680 5677